owner,sensor,date,latitude,longitude,vertical_datum,sea_water_practical_salinity,qcFlag 
SCCF RECON,ioos:station:SCCF:13:1,2010-06-01T00:00:00Z,26.5255,-82.0032,2.356,20.63,1111122 
SCCF RECON,ioos:station:SCCF:13:1,2010-06-01T01:00:00Z,26.5255,-82.0032,2.27,18.36,1111122 
SCCF RECON,ioos:station:SCCF:13:1,2010-06-01T02:00:00Z,26.5255,-82.0032,2.2,14.96,1111122 
SCCF RECON,ioos:station:SCCF:13:1,2010-06-01T03:00:00Z,26.5255,-82.0032,2.13,13.02,1111122 
SCCF RECON,ioos:station:SCCF:13:1,2010-06-01T04:00:00Z,26.5255,-82.0032,2.09,11.95,1111122 
SCCF RECON,ioos:station:SCCF:13:1,2010-06-01T05:00:00Z,26.5255,-82.0032,2.15,10.2,1111122 
SCCF RECON,ioos:station:SCCF:13:1,2010-06-01T06:00:00Z,26.5255,-82.0032,2.25,9.19,1111122 
SCCF RECON,ioos:station:SCCF:13:1,2010-06-01T07:00:00Z,26.5255,-82.0032,2.32,9.44,1111122 
SCCF RECON,ioos:station:SCCF:13:1,2010-06-01T08:00:00Z,26.5255,-82.0032,2.38,13.19,1111122 
SCCF RECON,ioos:station:SCCF:13:1,2010-06-01T09:00:00Z,26.5255,-82.0032,2.42,16.42,1111122 
SCCF RECON,ioos:station:SCCF:13:1,2010-06-01T10:00:00Z,26.5255,-82.0032,2.453,21.67,1111122 
SCCF RECON,ioos:station:SCCF:13:1,2010-06-01T11:00:00Z,26.5255,-82.0032,2.46,24.62,1111122 
SCCF RECON,ioos:station:SCCF:13:1,2010-06-01T12:00:00Z,26.5255,-82.0032,2.447,25.3,1111122 
SCCF RECON,ioos:station:SCCF:13:1,2010-06-01T13:00:00Z,26.5255,-82.0032,2.42,25.72,1111122 
SCCF RECON,ioos:station:SCCF:13:1,2010-06-01T14:00:00Z,26.5255,-82.0032,2.4,25.51,1111122 
SCCF RECON,ioos:station:SCCF:13:1,2010-06-01T15:00:00Z,26.5255,-82.0032,2.4,21.86,1111122 
SCCF RECON,ioos:station:SCCF:13:1,2010-06-01T16:00:00Z,26.5255,-82.0032,2.46,25.07,1111122 
SCCF RECON,ioos:station:SCCF:13:1,2010-06-01T17:00:00Z,26.5255,-82.0032,2.53,25.66,1111122 
SCCF RECON,ioos:station:SCCF:13:1,2010-06-01T18:00:00Z,26.5255,-82.0032,2.59,22.87,1111122 
SCCF RECON,ioos:station:SCCF:13:1,2010-06-01T19:00:00Z,26.5255,-82.0032,2.626,25.29,1111122 
SCCF RECON,ioos:station:SCCF:13:1,2010-06-01T20:00:00Z,26.5255,-82.0032,2.65,27.23,1111122 
SCCF RECON,ioos:station:SCCF:13:1,2010-06-01T21:00:00Z,26.5255,-82.0032,2.651,27.88,1111122 
SCCF RECON,ioos:station:SCCF:13:1,2010-06-01T22:00:00Z,26.5255,-82.0032,2.586,28.62,1111122 
SCCF RECON,ioos:station:SCCF:13:1,2010-06-01T23:00:00Z,26.5255,-82.0032,2.509,26.85,1111122 
SCCF RECON,ioos:station:SCCF:13:1,2010-06-02T00:00:00Z,26.5255,-82.0032,2.41,23.95,1111122 
SCCF RECON,ioos:station:SCCF:13:1,2010-06-02T01:00:00Z,26.5255,-82.0032,2.339,19.83,1111122 
SCCF RECON,ioos:station:SCCF:13:1,2010-06-02T02:00:00Z,26.5255,-82.0032,2.26,16.46,1111122 
SCCF RECON,ioos:station:SCCF:13:1,2010-06-02T03:00:00Z,26.5255,-82.0032,2.18,12.97,1111122 
SCCF RECON,ioos:station:SCCF:13:1,2010-06-02T04:00:00Z,26.5255,-82.0032,2.12,11.9,1111122 
SCCF RECON,ioos:station:SCCF:13:1,2010-06-02T05:00:00Z,26.5255,-82.0032,2.12,10.39,1111122 
SCCF RECON,ioos:station:SCCF:13:1,2010-06-02T06:00:00Z,26.5255,-82.0032,2.204,9.01,1111122 
SCCF RECON,ioos:station:SCCF:13:1,2010-06-02T07:00:00Z,26.5255,-82.0032,2.29,8.79,1111122 
SCCF RECON,ioos:station:SCCF:13:1,2010-06-02T08:00:00Z,26.5255,-82.0032,2.35,13.04,1111122 
SCCF RECON,ioos:station:SCCF:13:1,2010-06-02T09:00:00Z,26.5255,-82.0032,2.41,15.9,1111122 
SCCF RECON,ioos:station:SCCF:13:1,2010-06-02T10:00:00Z,26.5255,-82.0032,2.46,19.91,1111122 
SCCF RECON,ioos:station:SCCF:13:1,2010-06-02T11:00:00Z,26.5255,-82.0032,2.491,24.9,1111122 
SCCF RECON,ioos:station:SCCF:13:1,2010-06-02T12:00:00Z,26.5255,-82.0032,2.47,26.74,1111122 
SCCF RECON,ioos:station:SCCF:13:1,2010-06-02T13:00:00Z,26.5255,-82.0032,2.44,27.33,1111122 
SCCF RECON,ioos:station:SCCF:13:1,2010-06-02T14:00:00Z,26.5255,-82.0032,2.4,27.0,1111122 
SCCF RECON,ioos:station:SCCF:13:1,2010-06-02T15:00:00Z,26.5255,-82.0032,2.38,24.65,1111122 
SCCF RECON,ioos:station:SCCF:13:1,2010-06-02T16:00:00Z,26.5255,-82.0032,2.384,20.79,1111122 
SCCF RECON,ioos:station:SCCF:13:1,2010-06-02T17:00:00Z,26.5255,-82.0032,2.43,25.07,1111122 
SCCF RECON,ioos:station:SCCF:13:1,2010-06-02T18:00:00Z,26.5255,-82.0032,2.48,25.66,1111122 
SCCF RECON,ioos:station:SCCF:13:1,2010-06-02T19:00:00Z,26.5255,-82.0032,2.525,22.76,1111122 
SCCF RECON,ioos:station:SCCF:13:1,2010-06-02T20:00:00Z,26.5255,-82.0032,2.559,22.75,1111122 
SCCF RECON,ioos:station:SCCF:13:1,2010-06-02T21:00:00Z,26.5255,-82.0032,2.57,25.73,1111122 
SCCF RECON,ioos:station:SCCF:13:1,2010-06-02T22:00:00Z,26.5255,-82.0032,2.56,26.4,1111122 
SCCF RECON,ioos:station:SCCF:13:1,2010-06-02T23:00:00Z,26.5255,-82.0032,2.52,27.45,1111122 
SCCF RECON,ioos:station:SCCF:13:1,2010-06-03T00:00:00Z,26.5255,-82.0032,2.447,26.74,1111122 
SCCF RECON,ioos:station:SCCF:13:1,2010-06-03T01:00:00Z,26.5255,-82.0032,2.37,18.62,1111122 
SCCF RECON,ioos:station:SCCF:13:1,2010-06-03T02:00:00Z,26.5255,-82.0032,2.29,14.81,1111122 
SCCF RECON,ioos:station:SCCF:13:1,2010-06-03T03:00:00Z,26.5255,-82.0032,2.214,12.9,1111122 
SCCF RECON,ioos:station:SCCF:13:1,2010-06-03T04:00:00Z,26.5255,-82.0032,2.15,11.05,1111122 
SCCF RECON,ioos:station:SCCF:13:1,2010-06-03T05:00:00Z,26.5255,-82.0032,2.13,10.34,1111122 
SCCF RECON,ioos:station:SCCF:13:1,2010-06-03T06:00:00Z,26.5255,-82.0032,2.182,9.82,1111122 
SCCF RECON,ioos:station:SCCF:13:1,2010-06-03T07:00:00Z,26.5255,-82.0032,2.275,9.14,1111122 
SCCF RECON,ioos:station:SCCF:13:1,2010-06-03T08:00:00Z,26.5255,-82.0032,2.35,12.14,1111122 
SCCF RECON,ioos:station:SCCF:13:1,2010-06-03T09:00:00Z,26.5255,-82.0032,2.4,16.03,1111122 
SCCF RECON,ioos:station:SCCF:13:1,2010-06-03T10:00:00Z,26.5255,-82.0032,2.47,20.36,1111122 
SCCF RECON,ioos:station:SCCF:13:1,2010-06-03T11:00:00Z,26.5255,-82.0032,2.515,23.82,1111122 
SCCF RECON,ioos:station:SCCF:13:1,2010-06-03T12:00:00Z,26.5255,-82.0032,2.54,26.68,1111122 
SCCF RECON,ioos:station:SCCF:13:1,2010-06-03T13:00:00Z,26.5255,-82.0032,2.56,26.96,1111122 
SCCF RECON,ioos:station:SCCF:13:1,2010-06-03T14:00:00Z,26.5255,-82.0032,2.54,27.43,1111122 
SCCF RECON,ioos:station:SCCF:13:1,2010-06-03T15:00:00Z,26.5255,-82.0032,2.496,27.64,1111122 
SCCF RECON,ioos:station:SCCF:13:1,2010-06-03T16:00:00Z,26.5255,-82.0032,2.45,27.33,1111122 
SCCF RECON,ioos:station:SCCF:13:1,2010-06-03T17:00:00Z,26.5255,-82.0032,2.43,24.49,1111122 
SCCF RECON,ioos:station:SCCF:13:1,2010-06-03T18:00:00Z,26.5255,-82.0032,2.43,22.47,1111122 
SCCF RECON,ioos:station:SCCF:13:1,2010-06-03T19:00:00Z,26.5255,-82.0032,2.5,23.48,1111122 
SCCF RECON,ioos:station:SCCF:13:1,2010-06-03T20:00:00Z,26.5255,-82.0032,2.55,25.76,1111122 
SCCF RECON,ioos:station:SCCF:13:1,2010-06-03T21:00:00Z,26.5255,-82.0032,2.58,25.99,1111122 
SCCF RECON,ioos:station:SCCF:13:1,2010-06-03T22:00:00Z,26.5255,-82.0032,2.58,27.01,1111122 
SCCF RECON,ioos:station:SCCF:13:1,2010-06-03T23:00:00Z,26.5255,-82.0032,2.562,27.2,1111122 
SCCF RECON,ioos:station:SCCF:13:1,2010-06-04T00:00:00Z,26.5255,-82.0032,2.54,26.69,1111122 
SCCF RECON,ioos:station:SCCF:13:1,2010-06-04T01:00:00Z,26.5255,-82.0032,2.484,25.02,1111122 
SCCF RECON,ioos:station:SCCF:13:1,2010-06-04T02:00:00Z,26.5255,-82.0032,2.38,17.11,1111122 
SCCF RECON,ioos:station:SCCF:13:1,2010-06-04T03:00:00Z,26.5255,-82.0032,2.31,14.92,1111122 
SCCF RECON,ioos:station:SCCF:13:1,2010-06-04T04:00:00Z,26.5255,-82.0032,2.27,12.6,1111122 
SCCF RECON,ioos:station:SCCF:13:1,2010-06-04T05:00:00Z,26.5255,-82.0032,2.212,11.1,1111122 
SCCF RECON,ioos:station:SCCF:13:1,2010-06-04T06:00:00Z,26.5255,-82.0032,2.174,10.22,1111122 
SCCF RECON,ioos:station:SCCF:13:1,2010-06-04T07:00:00Z,26.5255,-82.0032,2.23,9.37,1111122 
SCCF RECON,ioos:station:SCCF:13:1,2010-06-04T08:00:00Z,26.5255,-82.0032,2.463,9.88,1111122 
SCCF RECON,ioos:station:SCCF:13:1,2010-06-04T09:00:00Z,26.5255,-82.0032,2.481,16.73,1111122 
SCCF RECON,ioos:station:SCCF:13:1,2010-06-04T10:00:00Z,26.5255,-82.0032,2.47,21.3,1111122 
SCCF RECON,ioos:station:SCCF:13:1,2010-06-04T11:00:00Z,26.5255,-82.0032,2.539,23.06,1111122 
SCCF RECON,ioos:station:SCCF:13:1,2010-06-04T12:00:00Z,26.5255,-82.0032,2.647,26.85,1111122 
SCCF RECON,ioos:station:SCCF:13:1,2010-06-04T13:00:00Z,26.5255,-82.0032,2.66,28.38,1111122 
SCCF RECON,ioos:station:SCCF:13:1,2010-06-04T14:00:00Z,26.5255,-82.0032,2.614,29.01,1111122 
SCCF RECON,ioos:station:SCCF:13:1,2010-06-04T15:00:00Z,26.5255,-82.0032,2.589,28.89,1111122 
SCCF RECON,ioos:station:SCCF:13:1,2010-06-04T16:00:00Z,26.5255,-82.0032,2.59,29.39,1111122 
SCCF RECON,ioos:station:SCCF:13:1,2010-06-04T17:00:00Z,26.5255,-82.0032,2.588,28.42,1111122 
SCCF RECON,ioos:station:SCCF:13:1,2010-06-04T18:00:00Z,26.5255,-82.0032,2.526,28.36,1111122 
SCCF RECON,ioos:station:SCCF:13:1,2010-06-04T19:00:00Z,26.5255,-82.0032,2.482,25.81,1111122 
SCCF RECON,ioos:station:SCCF:13:1,2010-06-04T20:00:00Z,26.5255,-82.0032,2.47,23.21,1111122 
SCCF RECON,ioos:station:SCCF:13:1,2010-06-04T21:00:00Z,26.5255,-82.0032,2.54,21.74,1111122 
SCCF RECON,ioos:station:SCCF:13:1,2010-06-04T22:00:00Z,26.5255,-82.0032,2.583,23.25,1111122 
SCCF RECON,ioos:station:SCCF:13:1,2010-06-04T23:00:00Z,26.5255,-82.0032,2.592,25.72,1111122 
SCCF RECON,ioos:station:SCCF:13:1,2010-06-05T00:00:00Z,26.5255,-82.0032,2.57,26.14,1111122 
SCCF RECON,ioos:station:SCCF:13:1,2010-06-05T01:00:00Z,26.5255,-82.0032,2.53,25.27,1111122 
SCCF RECON,ioos:station:SCCF:13:1,2010-06-05T02:00:00Z,26.5255,-82.0032,2.48,23.09,1111122 
SCCF RECON,ioos:station:SCCF:13:1,2010-06-05T03:00:00Z,26.5255,-82.0032,2.402,17.56,1111122 
SCCF RECON,ioos:station:SCCF:13:1,2010-06-05T04:00:00Z,26.5255,-82.0032,2.34,14.49,1111122 
SCCF RECON,ioos:station:SCCF:13:1,2010-06-05T05:00:00Z,26.5255,-82.0032,2.3,12.05,1111122 
SCCF RECON,ioos:station:SCCF:13:1,2010-06-05T06:00:00Z,26.5255,-82.0032,2.28,10.92,1111122 
SCCF RECON,ioos:station:SCCF:13:1,2010-06-05T07:00:00Z,26.5255,-82.0032,2.28,9.83,1111122 
SCCF RECON,ioos:station:SCCF:13:1,2010-06-05T08:00:00Z,26.5255,-82.0032,2.33,9.69,1111122 
SCCF RECON,ioos:station:SCCF:13:1,2010-06-05T09:00:00Z,26.5255,-82.0032,2.41,15.65,1111122 
SCCF RECON,ioos:station:SCCF:13:1,2010-06-05T10:00:00Z,26.5255,-82.0032,2.47,19.72,1111122 
SCCF RECON,ioos:station:SCCF:13:1,2010-06-05T11:00:00Z,26.5255,-82.0032,2.516,22.09,1111122 
SCCF RECON,ioos:station:SCCF:13:1,2010-06-05T12:00:00Z,26.5255,-82.0032,2.58,24.83,1111122 
SCCF RECON,ioos:station:SCCF:13:1,2010-06-05T13:00:00Z,26.5255,-82.0032,2.64,27.69,1111122 
SCCF RECON,ioos:station:SCCF:13:1,2010-06-05T14:00:00Z,26.5255,-82.0032,2.66,29.12,1111122 
SCCF RECON,ioos:station:SCCF:13:1,2010-06-05T15:00:00Z,26.5255,-82.0032,2.588,29.72,1111122 
SCCF RECON,ioos:station:SCCF:13:1,2010-06-05T16:00:00Z,26.5255,-82.0032,2.525,29.8,1111122 
SCCF RECON,ioos:station:SCCF:13:1,2010-06-05T17:00:00Z,26.5255,-82.0032,2.432,28.04,1111122 
SCCF RECON,ioos:station:SCCF:13:1,2010-06-05T18:00:00Z,26.5255,-82.0032,2.377,20.67,1111122 
SCCF RECON,ioos:station:SCCF:13:1,2010-06-05T19:00:00Z,26.5255,-82.0032,2.356,17.67,1111122 
SCCF RECON,ioos:station:SCCF:13:1,2010-06-05T20:00:00Z,26.5255,-82.0032,2.36,15.89,1111122 
SCCF RECON,ioos:station:SCCF:13:1,2010-06-05T21:00:00Z,26.5255,-82.0032,2.4,16.28,1111122 
SCCF RECON,ioos:station:SCCF:13:1,2010-06-05T22:00:00Z,26.5255,-82.0032,2.456,16.38,1111122 
SCCF RECON,ioos:station:SCCF:13:1,2010-06-05T23:00:00Z,26.5255,-82.0032,2.49,21.18,1111122 
SCCF RECON,ioos:station:SCCF:13:1,2010-06-06T00:00:00Z,26.5255,-82.0032,2.5,23.23,1111122 
SCCF RECON,ioos:station:SCCF:13:1,2010-06-06T01:00:00Z,26.5255,-82.0032,2.499,25.95,1111122 
SCCF RECON,ioos:station:SCCF:13:1,2010-06-06T02:00:00Z,26.5255,-82.0032,2.49,26.7,1111122 
SCCF RECON,ioos:station:SCCF:13:1,2010-06-06T03:00:00Z,26.5255,-82.0032,2.45,24.9,1111122 
SCCF RECON,ioos:station:SCCF:13:1,2010-06-06T04:00:00Z,26.5255,-82.0032,2.4,20.24,1111122 
SCCF RECON,ioos:station:SCCF:13:1,2010-06-06T05:00:00Z,26.5255,-82.0032,2.34,13.63,1111122 
SCCF RECON,ioos:station:SCCF:13:1,2010-06-06T06:00:00Z,26.5255,-82.0032,2.27,11.27,1111122 
SCCF RECON,ioos:station:SCCF:13:1,2010-06-06T07:00:00Z,26.5255,-82.0032,2.24,9.53,1111122 
SCCF RECON,ioos:station:SCCF:13:1,2010-06-06T08:00:00Z,26.5255,-82.0032,2.25,8.24,1111122 
SCCF RECON,ioos:station:SCCF:13:1,2010-06-06T09:00:00Z,26.5255,-82.0032,2.31,8.34,1111122 
SCCF RECON,ioos:station:SCCF:13:1,2010-06-06T10:00:00Z,26.5255,-82.0032,2.4,17.91,1111122 
SCCF RECON,ioos:station:SCCF:13:1,2010-06-06T11:00:00Z,26.5255,-82.0032,2.487,22.21,1111122 
SCCF RECON,ioos:station:SCCF:13:1,2010-06-06T12:00:00Z,26.5255,-82.0032,2.529,24.94,1111122 
SCCF RECON,ioos:station:SCCF:13:1,2010-06-06T13:00:00Z,26.5255,-82.0032,2.538,27.0,1111122 
SCCF RECON,ioos:station:SCCF:13:1,2010-06-06T14:00:00Z,26.5255,-82.0032,2.547,27.7,1111122 
SCCF RECON,ioos:station:SCCF:13:1,2010-06-06T15:00:00Z,26.5255,-82.0032,2.551,27.77,1111122 
SCCF RECON,ioos:station:SCCF:13:1,2010-06-06T16:00:00Z,26.5255,-82.0032,2.511,29.46,1111122 
SCCF RECON,ioos:station:SCCF:13:1,2010-06-06T17:00:00Z,26.5255,-82.0032,2.42,25.67,1111122 
SCCF RECON,ioos:station:SCCF:13:1,2010-06-06T18:00:00Z,26.5255,-82.0032,2.321,21.49,1111122 
SCCF RECON,ioos:station:SCCF:13:1,2010-06-06T19:00:00Z,26.5255,-82.0032,2.254,14.97,1111122 
SCCF RECON,ioos:station:SCCF:13:1,2010-06-06T20:00:00Z,26.5255,-82.0032,2.196,13.23,1111122 
SCCF RECON,ioos:station:SCCF:13:1,2010-06-06T21:00:00Z,26.5255,-82.0032,2.194,11.51,1111122 
SCCF RECON,ioos:station:SCCF:13:1,2010-06-06T22:00:00Z,26.5255,-82.0032,2.25,10.17,1111122 
SCCF RECON,ioos:station:SCCF:13:1,2010-06-06T23:00:00Z,26.5255,-82.0032,2.34,10.66,1111122 
SCCF RECON,ioos:station:SCCF:13:1,2010-06-07T00:00:00Z,26.5255,-82.0032,2.4,19.23,1111122 
SCCF RECON,ioos:station:SCCF:13:1,2010-06-07T01:00:00Z,26.5255,-82.0032,2.443,19.25,1111122 
SCCF RECON,ioos:station:SCCF:13:1,2010-06-07T02:00:00Z,26.5255,-82.0032,2.49,20.32,1111122 
SCCF RECON,ioos:station:SCCF:13:1,2010-06-07T03:00:00Z,26.5255,-82.0032,2.5,23.63,1111122 
SCCF RECON,ioos:station:SCCF:13:1,2010-06-07T04:00:00Z,26.5255,-82.0032,2.46,24.08,1111122 
SCCF RECON,ioos:station:SCCF:13:1,2010-06-07T05:00:00Z,26.5255,-82.0032,2.39,23.47,1111122 
SCCF RECON,ioos:station:SCCF:13:1,2010-06-07T06:00:00Z,26.5255,-82.0032,2.34,19.54,1111122 
SCCF RECON,ioos:station:SCCF:13:1,2010-06-07T07:00:00Z,26.5255,-82.0032,2.33,15.41,1111122 
SCCF RECON,ioos:station:SCCF:13:1,2010-06-07T08:00:00Z,26.5255,-82.0032,2.33,14.15,1111122 
SCCF RECON,ioos:station:SCCF:13:1,2010-06-07T09:00:00Z,26.5255,-82.0032,2.32,13.47,1111122 
SCCF RECON,ioos:station:SCCF:13:1,2010-06-07T10:00:00Z,26.5255,-82.0032,2.36,21.05,1111122 
SCCF RECON,ioos:station:SCCF:13:1,2010-06-07T11:00:00Z,26.5255,-82.0032,2.45,22.38,1111122 
SCCF RECON,ioos:station:SCCF:13:1,2010-06-07T12:00:00Z,26.5255,-82.0032,2.53,22.32,1111122 
SCCF RECON,ioos:station:SCCF:13:1,2010-06-07T13:00:00Z,26.5255,-82.0032,2.57,22.01,1111122 
SCCF RECON,ioos:station:SCCF:13:1,2010-06-07T14:00:00Z,26.5255,-82.0032,2.591,25.53,1111122 
SCCF RECON,ioos:station:SCCF:13:1,2010-06-07T15:00:00Z,26.5255,-82.0032,2.6,25.7,1111122 
SCCF RECON,ioos:station:SCCF:13:1,2010-06-07T16:00:00Z,26.5255,-82.0032,2.548,28.09,1111122 
SCCF RECON,ioos:station:SCCF:13:1,2010-06-07T17:00:00Z,26.5255,-82.0032,2.461,27.13,1111122 
SCCF RECON,ioos:station:SCCF:13:1,2010-06-07T18:00:00Z,26.5255,-82.0032,2.347,23.27,1111122 
SCCF RECON,ioos:station:SCCF:13:1,2010-06-07T19:00:00Z,26.5255,-82.0032,2.268,19.02,1111122 
SCCF RECON,ioos:station:SCCF:13:1,2010-06-07T20:00:00Z,26.5255,-82.0032,2.202,16.22,1111122 
SCCF RECON,ioos:station:SCCF:13:1,2010-06-07T21:00:00Z,26.5255,-82.0032,2.15,13.32,1111122 
SCCF RECON,ioos:station:SCCF:13:1,2010-06-07T22:00:00Z,26.5255,-82.0032,2.13,11.7,1111122 
SCCF RECON,ioos:station:SCCF:13:1,2010-06-07T23:00:00Z,26.5255,-82.0032,2.188,10.05,1111122 
SCCF RECON,ioos:station:SCCF:13:1,2010-06-08T00:00:00Z,26.5255,-82.0032,2.286,9.23,1111122 
SCCF RECON,ioos:station:SCCF:13:1,2010-06-08T01:00:00Z,26.5255,-82.0032,2.35,10.42,1111122 
SCCF RECON,ioos:station:SCCF:13:1,2010-06-08T02:00:00Z,26.5255,-82.0032,2.4,16.07,1111122 
SCCF RECON,ioos:station:SCCF:13:1,2010-06-08T03:00:00Z,26.5255,-82.0032,2.45,16.16,1111122 
SCCF RECON,ioos:station:SCCF:13:1,2010-06-08T04:00:00Z,26.5255,-82.0032,2.46,19.56,1111122 
SCCF RECON,ioos:station:SCCF:13:1,2010-06-08T05:00:00Z,26.5255,-82.0032,2.449,22.31,1111122 
SCCF RECON,ioos:station:SCCF:13:1,2010-06-08T06:00:00Z,26.5255,-82.0032,2.41,24.43,1111122 
SCCF RECON,ioos:station:SCCF:13:1,2010-06-08T07:00:00Z,26.5255,-82.0032,2.39,21.97,1111122 
SCCF RECON,ioos:station:SCCF:13:1,2010-06-08T08:00:00Z,26.5255,-82.0032,2.38,20.84,1111122 
SCCF RECON,ioos:station:SCCF:13:1,2010-06-08T09:00:00Z,26.5255,-82.0032,2.37,21.24,1111122 
SCCF RECON,ioos:station:SCCF:13:1,2010-06-08T10:00:00Z,26.5255,-82.0032,2.39,25.39,1111122 
SCCF RECON,ioos:station:SCCF:13:1,2010-06-08T11:00:00Z,26.5255,-82.0032,2.46,25.33,1111122 
SCCF RECON,ioos:station:SCCF:13:1,2010-06-08T12:00:00Z,26.5255,-82.0032,2.53,25.69,1111122 
SCCF RECON,ioos:station:SCCF:13:1,2010-06-08T13:00:00Z,26.5255,-82.0032,2.59,26.58,1111122 
SCCF RECON,ioos:station:SCCF:13:1,2010-06-08T14:00:00Z,26.5255,-82.0032,2.65,27.06,1111122 
SCCF RECON,ioos:station:SCCF:13:1,2010-06-08T15:00:00Z,26.5255,-82.0032,2.68,27.05,1111122 
SCCF RECON,ioos:station:SCCF:13:1,2010-06-08T16:00:00Z,26.5255,-82.0032,2.66,27.28,1111122 
SCCF RECON,ioos:station:SCCF:13:1,2010-06-08T17:00:00Z,26.5255,-82.0032,2.56,28.29,1111122 
SCCF RECON,ioos:station:SCCF:13:1,2010-06-08T18:00:00Z,26.5255,-82.0032,2.426,24.88,1111122 
SCCF RECON,ioos:station:SCCF:13:1,2010-06-08T19:00:00Z,26.5255,-82.0032,2.32,18.78,1111122 
SCCF RECON,ioos:station:SCCF:13:1,2010-06-08T20:00:00Z,26.5255,-82.0032,2.235,15.3,1111122 
SCCF RECON,ioos:station:SCCF:13:1,2010-06-08T21:00:00Z,26.5255,-82.0032,2.171,14.31,1111122 
SCCF RECON,ioos:station:SCCF:13:1,2010-06-08T22:00:00Z,26.5255,-82.0032,2.111,11.89,1111122 
SCCF RECON,ioos:station:SCCF:13:1,2010-06-08T23:00:00Z,26.5255,-82.0032,2.1,10.22,1111122 
SCCF RECON,ioos:station:SCCF:13:1,2010-06-09T00:00:00Z,26.5255,-82.0032,2.18,8.5,1111122 
SCCF RECON,ioos:station:SCCF:13:1,2010-06-09T01:00:00Z,26.5255,-82.0032,2.31,7.19,1111122 
SCCF RECON,ioos:station:SCCF:13:1,2010-06-09T02:00:00Z,26.5255,-82.0032,2.32,8.09,1111122 
SCCF RECON,ioos:station:SCCF:13:1,2010-06-09T03:00:00Z,26.5255,-82.0032,2.36,10.81,1111122 
SCCF RECON,ioos:station:SCCF:13:1,2010-06-09T04:00:00Z,26.5255,-82.0032,2.43,15.67,1111122 
SCCF RECON,ioos:station:SCCF:13:1,2010-06-09T05:00:00Z,26.5255,-82.0032,2.431,19.04,1111122 
SCCF RECON,ioos:station:SCCF:13:1,2010-06-09T06:00:00Z,26.5255,-82.0032,2.4,20.97,1111122 
SCCF RECON,ioos:station:SCCF:13:1,2010-06-09T07:00:00Z,26.5255,-82.0032,2.38,22.75,1111122 
SCCF RECON,ioos:station:SCCF:13:1,2010-06-09T08:00:00Z,26.5255,-82.0032,2.295,22.81,1111122 
SCCF RECON,ioos:station:SCCF:13:1,2010-06-09T09:00:00Z,26.5255,-82.0032,2.248,19.38,1111122 
SCCF RECON,ioos:station:SCCF:13:1,2010-06-09T10:00:00Z,26.5255,-82.0032,2.257,11.6,1111122 
SCCF RECON,ioos:station:SCCF:13:1,2010-06-09T11:00:00Z,26.5255,-82.0032,2.38,19.72,1111122 
SCCF RECON,ioos:station:SCCF:13:1,2010-06-09T12:00:00Z,26.5255,-82.0032,2.52,22.93,1111122 
SCCF RECON,ioos:station:SCCF:13:1,2010-06-09T13:00:00Z,26.5255,-82.0032,2.603,23.63,1111122 
SCCF RECON,ioos:station:SCCF:13:1,2010-06-09T14:00:00Z,26.5255,-82.0032,2.65,26.54,1111122 
SCCF RECON,ioos:station:SCCF:13:1,2010-06-09T15:00:00Z,26.5255,-82.0032,2.69,28.53,1111122 
SCCF RECON,ioos:station:SCCF:13:1,2010-06-09T16:00:00Z,26.5255,-82.0032,2.676,28.61,1111122 
SCCF RECON,ioos:station:SCCF:13:1,2010-06-09T17:00:00Z,26.5255,-82.0032,2.599,28.74,1111122 
SCCF RECON,ioos:station:SCCF:13:1,2010-06-09T18:00:00Z,26.5255,-82.0032,2.492,27.43,1111122 
SCCF RECON,ioos:station:SCCF:13:1,2010-06-09T19:00:00Z,26.5255,-82.0032,2.39,24.9,1111122 
SCCF RECON,ioos:station:SCCF:13:1,2010-06-09T20:00:00Z,26.5255,-82.0032,2.29,15.23,1111122 
SCCF RECON,ioos:station:SCCF:13:1,2010-06-09T21:00:00Z,26.5255,-82.0032,2.192,12.32,1111122 
SCCF RECON,ioos:station:SCCF:13:1,2010-06-09T22:00:00Z,26.5255,-82.0032,2.1,11.03,1111122 
SCCF RECON,ioos:station:SCCF:13:1,2010-06-09T23:00:00Z,26.5255,-82.0032,2.044,10.32,1111122 
SCCF RECON,ioos:station:SCCF:13:1,2010-06-10T00:00:00Z,26.5255,-82.0032,2.07,8.82,1111122 
SCCF RECON,ioos:station:SCCF:13:1,2010-06-10T01:00:00Z,26.5255,-82.0032,2.18,7.61,1111122 
SCCF RECON,ioos:station:SCCF:13:1,2010-06-10T02:00:00Z,26.5255,-82.0032,2.29,7.29,1111122 
SCCF RECON,ioos:station:SCCF:13:1,2010-06-10T03:00:00Z,26.5255,-82.0032,2.365,12.2,1111122 
SCCF RECON,ioos:station:SCCF:13:1,2010-06-10T04:00:00Z,26.5255,-82.0032,2.408,15.8,1111122 
SCCF RECON,ioos:station:SCCF:13:1,2010-06-10T05:00:00Z,26.5255,-82.0032,2.453,21.63,1111122 
SCCF RECON,ioos:station:SCCF:13:1,2010-06-10T06:00:00Z,26.5255,-82.0032,2.46,24.76,1111122 
SCCF RECON,ioos:station:SCCF:13:1,2010-06-10T07:00:00Z,26.5255,-82.0032,2.41,24.7,1111122 
SCCF RECON,ioos:station:SCCF:13:1,2010-06-10T08:00:00Z,26.5255,-82.0032,2.39,25.52,1111122 
SCCF RECON,ioos:station:SCCF:13:1,2010-06-10T09:00:00Z,26.5255,-82.0032,2.36,25.49,1111122 
SCCF RECON,ioos:station:SCCF:13:1,2010-06-10T10:00:00Z,26.5255,-82.0032,2.33,24.0,1111122 
SCCF RECON,ioos:station:SCCF:13:1,2010-06-10T11:00:00Z,26.5255,-82.0032,2.36,21.55,1111122 
SCCF RECON,ioos:station:SCCF:13:1,2010-06-10T12:00:00Z,26.5255,-82.0032,2.457,25.0,1111122 
SCCF RECON,ioos:station:SCCF:13:1,2010-06-10T13:00:00Z,26.5255,-82.0032,2.55,23.51,1111122 
SCCF RECON,ioos:station:SCCF:13:1,2010-06-10T14:00:00Z,26.5255,-82.0032,2.645,26.33,1111122 
SCCF RECON,ioos:station:SCCF:13:1,2010-06-10T15:00:00Z,26.5255,-82.0032,2.7,28.61,1111122 
SCCF RECON,ioos:station:SCCF:13:1,2010-06-10T16:00:00Z,26.5255,-82.0032,2.729,29.91,1111122 
SCCF RECON,ioos:station:SCCF:13:1,2010-06-10T17:00:00Z,26.5255,-82.0032,2.7,29.11,1111122 
SCCF RECON,ioos:station:SCCF:13:1,2010-06-10T18:00:00Z,26.5255,-82.0032,2.6,30.04,1111122 
SCCF RECON,ioos:station:SCCF:13:1,2010-06-10T19:00:00Z,26.5255,-82.0032,2.463,29.05,1111122 
SCCF RECON,ioos:station:SCCF:13:1,2010-06-10T20:00:00Z,26.5255,-82.0032,2.348,24.86,1111122 
SCCF RECON,ioos:station:SCCF:13:1,2010-06-10T21:00:00Z,26.5255,-82.0032,2.26,22.4,1111122 
SCCF RECON,ioos:station:SCCF:13:1,2010-06-10T22:00:00Z,26.5255,-82.0032,2.171,18.55,1111122 
SCCF RECON,ioos:station:SCCF:13:1,2010-06-10T23:00:00Z,26.5255,-82.0032,2.089,15.72,1111122 
SCCF RECON,ioos:station:SCCF:13:1,2010-06-11T00:00:00Z,26.5255,-82.0032,2.043,13.84,1111122 
SCCF RECON,ioos:station:SCCF:13:1,2010-06-11T01:00:00Z,26.5255,-82.0032,2.084,12.42,1111122 
SCCF RECON,ioos:station:SCCF:13:1,2010-06-11T02:00:00Z,26.5255,-82.0032,2.22,10.39,1111122 
SCCF RECON,ioos:station:SCCF:13:1,2010-06-11T03:00:00Z,26.5255,-82.0032,2.33,10.62,1111122 
SCCF RECON,ioos:station:SCCF:13:1,2010-06-11T04:00:00Z,26.5255,-82.0032,2.41,15.28,1111122 
SCCF RECON,ioos:station:SCCF:13:1,2010-06-11T05:00:00Z,26.5255,-82.0032,2.482,19.83,1111122 
SCCF RECON,ioos:station:SCCF:13:1,2010-06-11T06:00:00Z,26.5255,-82.0032,2.519,23.51,1111122 
SCCF RECON,ioos:station:SCCF:13:1,2010-06-11T07:00:00Z,26.5255,-82.0032,2.515,25.49,1111122 
SCCF RECON,ioos:station:SCCF:13:1,2010-06-11T08:00:00Z,26.5255,-82.0032,2.501,25.91,1111122 
SCCF RECON,ioos:station:SCCF:13:1,2010-06-11T09:00:00Z,26.5255,-82.0032,2.46,26.06,1111122 
SCCF RECON,ioos:station:SCCF:13:1,2010-06-11T10:00:00Z,26.5255,-82.0032,2.401,26.17,1111122 
SCCF RECON,ioos:station:SCCF:13:1,2010-06-11T11:00:00Z,26.5255,-82.0032,2.39,26.08,1111122 
SCCF RECON,ioos:station:SCCF:13:1,2010-06-11T12:00:00Z,26.5255,-82.0032,2.46,25.59,1111122 
SCCF RECON,ioos:station:SCCF:13:1,2010-06-11T13:00:00Z,26.5255,-82.0032,2.58,24.5,1111122 
SCCF RECON,ioos:station:SCCF:13:1,2010-06-11T14:00:00Z,26.5255,-82.0032,2.689,25.95,1111122 
SCCF RECON,ioos:station:SCCF:13:1,2010-06-11T15:00:00Z,26.5255,-82.0032,2.76,28.25,1111122 
SCCF RECON,ioos:station:SCCF:13:1,2010-06-11T16:00:00Z,26.5255,-82.0032,2.81,29.85,1111122 
SCCF RECON,ioos:station:SCCF:13:1,2010-06-11T17:00:00Z,26.5255,-82.0032,2.82,30.16,1111122 
SCCF RECON,ioos:station:SCCF:13:1,2010-06-11T18:00:00Z,26.5255,-82.0032,2.77,30.09,1111122 